Lid_Strength_Index
8 11 14 12 12 13 13 13 13 12 10 14 14 14 13 11 12 13 12 12 10 7 5 4 3 3 2 2 2 2 2 1 1 2 2 2 2 1 2 1 1 1 1 1
11 14 10 10 10 11 13 13 13 11 9 12 13 13 11 12 11 11 12 12 11 8 7 5 4 3 3 2 2 2 2 2 1 1 1 1 2 2 1 1 1 1 0 1
13 11 8 10 12 12 12 14 13 12 13 14 15 15 13 11 10 11 11 10 11 9 7 6 5 4 3 3 2 2 2 2 1 1 1 2 2 2 2 2 2 2 1 1
11 8 10 11 12 11 15 11 12 12 14 17 14 18 14 11 11 10 11 11 11 11 8 6 5 5 4 3 2 2 1 1 1 1 1 2 2 2 1 1 1 1 1 1
12 11 11 13 12 10 12 10 11 12 14 17 17 18 16 12 12 11 11 11 11 11 9 7 5 4 3 3 2 2 1 1 1 1 1 2 2 1 1 1 1 1 1 1
10 9 9 10 9 9 9 11 13 14 15 17 17 16 18 15 12 11 10 12 11 12 11 8 5 4 4 3 3 2 2 2 1 1 2 2 2 2 2 2 1 1 1 2
13 12 9 9 12 10 11 15 19 20 20 20 18 19 15 13 13 11 11 12 12 11 12 11 8 6 4 4 3 3 2 2 2 2 1 2 2 2 2 2 2 2 2 2
16 17 13 10 11 13 13 15 18 22 22 22 21 20 16 12 10 12 12 12 12 12 11 11 11 7 5 4 3 3 3 2 3 2 2 1 2 2 2 2 1 1 1 1
16 15 11 11 11 11 15 16 12 19 23 22 21 19 15 13 13 13 13 13 13 13 12 11 11 11 6 5 4 3 3 3 3 2 2 2 1 2 2 2 2 1 1 2
12 16 12 11 10 10 13 12 17 18 24 25 22 21 18 15 14 14 14 13 13 13 12 12 11 11 11 9 8 6 4 3 3 4 2 2 2 2 3 3 2 1 1 2
9 12 15 13 14 15 15 16 16 16 19 23 24 21 16 15 14 14 14 13 13 13 12 12 12 11 11 10 10 9 8 8 7 6 5 4 4 4 3 2 2 3 3 2
10 14 17 15 13 12 13 15 15 19 21 21 21 20 16 15 15 14 14 14 13 13 13 13 11 11 10 10 9 9 9 8 8 6 5 5 6 6 5 4 3 2 3 3
10 14 19 17 16 15 15 14 14 14 18 21 21 20 16 15 16 15 14 14 13 13 12 11 11 10 10 9 9 8 8 8 8 7 7 7 7 7 7 6 4 2 2 3
9 14 14 18 17 16 17 15 14 15 20 21 19 18 17 16 15 14 14 14 13 13 12 11 11 11 10 9 9 9 8 8 8 8 8 8 8 8 8 7 7 5 4 4
10 15 14 15 13 14 15 15 15 16 16 18 17 17 16 15 15 14 14 13 13 12 12 11 11 11 10 10 9 9 8 8 8 8 9 8 8 8 8 9 9 8 8 6
10 15 16 17 15 14 16 15 14 14 14 15 15 15 13 13 14 14 13 13 12 12 12 11 11 11 10 10 10 9 9 9 9 9 9 9 9 10 10 10 11 10 10 9
12 15 15 17 17 16 19 16 15 15 13 14 17 14 14 14 14 13 13 12 13 13 12 12 11 11 11 10 10 11 10 10 9 10 11 11 11 11 11 11 11 11 11 11
13 14 17 19 17 21 15 13 13 14 13 13 13 13 13 12 12 12 12 12 13 13 13 13 13 13 12 11 11 10 11 11 11 12 12 12 11 12 12 12 12 12 12 11
10 14 17 19 18 18 16 15 15 15 15 13 13 13 13 13 13 13 12 13 13 13 13 13 13 13 13 13 12 12 13 13 13 13 13 13 13 13 13 13 13 12 13 13
11 11 15 18 20 21 17 14 12 12 16 12 11 12 14 13 14 13 13 13 13 14 13 14 14 14 14 15 15 14 14 14 14 14 13 13 14 13 13 13 14 15 14 14
15 15 16 17 20 19 14 14 11 17 16 13 11 11 12 13 11 13 14 15 15 15 15 15 16 17 17 16 15 15 16 16 16 16 16 14 13 14 14 14 15 14 14 14
15 16 16 18 20 18 14 14 15 14 15 13 12 11 11 14 14 14 15 15 16 16 16 17 17 18 17 17 16 17 17 17 18 16 15 15 14 14 14 14 14 14 14 14
15 13 15 14 15 14 14 14 13 13 13 14 13 14 13 14 15 15 16 16 17 17 17 18 18 19 19 18 18 18 18 17 16 15 15 15 14 14 14 14 14 14 14 14
14 13 15 15 15 15 14 14 13 13 14 14 14 13 12 14 15 16 17 17 17 17 18 19 19 20 21 21 20 20 19 19 20 19 18 15 15 15 14 14 14 14 14 15
15 13 16 17 16 15 14 13 13 14 15 15 15 14 14 15 16 17 18 18 18 18 19 19 20 21 22 21 22 22 21 21 20 20 20 20 18 17 16 16 15 15 15 14
20 18 16 17 16 15 14 14 14 15 16 15 15 16 16 15 17 17 19 19 19 20 20 21 21 22 23 23 24 24 23 23 22 20 20 20 21 21 20 20 19 15 13 12